N8SHA Weather Reports


Display with metric or nautical units.
time (UTC)temp
F
wind
direction
speed
MPH
gust
MPH
rain 1hr
in
rain 24hr
in
rain mn
in
humidity
%
barometer
mb
20260902104429 76 162 0.0 3.0 0.00 0.00 0.00 95 1016.0
20260902103928 76 224 2.0 3.0 0.00 0.00 0.00 95 1016.0
20260902103424 76 194 0.0 3.0 0.00 0.00 0.00 95 1016.0
20260902102919 76 165 1.0 3.0 0.00 0.00 0.00 95 1015.9
20260902102416 76 209 0.0 3.0 0.00 0.00 0.00 95 1016.2
20260902101913 76 145 0.0 2.0 0.00 0.00 0.00 95 1016.1
20260902101413 76 50 0.0 2.0 0.00 0.00 0.00 95 1016.2
20260902100912 76 135 0.0 2.0 0.00 0.00 0.00 95 1016.0
20260902100406 76 162 0.0 2.0 0.00 0.00 0.00 95 1015.8
20260902095901 76 171 2.0 3.0 0.00 0.00 0.00 95 1015.6
20260902095400 76 205 0.0 2.0 0.00 0.00 0.00 94 1015.7
20260902094855 77 143 0.0 2.0 0.00 0.00 0.00 94 1015.6
20260902094351 77 242 0.0 1.0 0.00 0.00 0.00 94 1015.4
20260902093850 77 164 0.0 2.0 0.00 0.00 0.00 94 1015.4
20260902093346 77 167 0.0 4.0 0.00 0.00 0.00 94 1015.4
20260902092844 77 191 1.0 5.0 0.00 0.00 0.00 94 1015.2
20260902092340 77 195 1.0 3.0 0.00 0.00 0.00 94 1015.2
20260902091835 77 178 1.0 2.0 0.00 0.00 0.00 94 1015.5
20260902091330 77 209 0.0 2.0 0.00 0.00 0.00 94 1015.4
20260902090827 77 214 0.0 2.0 0.00 0.00 0.00 94 1015.5
20260902090326 77 232 1.0 3.0 0.00 0.00 0.00 94 1015.1
20260902085825 77 234 0.0 3.0 0.00 0.00 0.00 93 1015.4
20260902085321 77 165 0.0 3.0 0.00 0.00 0.00 93 1015.0
20260902084816 77 213 1.0 4.0 0.00 0.00 0.00 93 1015.2
20260902084313 77 201 2.0 3.0 0.00 0.00 0.00 92 1015.1
20260902083808 77 160 2.0 5.0 0.00 0.00 0.00 93 1015.2
20260902083308 77 178 4.0 5.0 0.00 0.00 0.00 93 1015.3
20260902082802 77 160 3.0 7.0 0.00 0.00 0.00 93 1015.3
20260902082259 77 181 1.0 4.0 0.00 0.00 0.00 93 1015.1
20260902081755 77 181 2.0 5.0 0.00 0.00 0.00 93 1015.2
20260902081250 77 142 2.0 3.0 0.00 0.00 0.00 93 1015.2
20260902080745 77 229 0.0 3.0 0.00 0.00 0.00 92 1015.1
20260902080243 77 188 0.0 3.0 0.00 0.00 0.00 93 1015.3
20260902075741 77 212 1.0 4.0 0.00 0.00 0.00 93 1015.2
20260902075238 77 222 1.0 3.0 0.00 0.00 0.00 93 1015.2
20260902074732 77 189 1.0 4.0 0.00 0.00 0.00 93 1015.4
20260902074227 77 254 0.0 7.0 0.00 0.00 0.00 93 1015.2
20260902073723 77 181 0.0 3.0 0.00 0.00 0.00 93 1015.3
20260902073218 77 205 0.0 4.0 0.00 0.00 0.00 93 1015.2
20260902072715 77 199 1.0 3.0 0.00 0.00 0.00 93 1015.2
20260902072211 77 167 2.0 3.0 0.00 0.00 0.00 93 1015.1
20260902071706 77 180 0.0 2.0 0.00 0.00 0.00 93 1015.2
20260902071201 77 177 1.0 3.0 0.00 0.00 0.00 93 1014.9
20260902070658 77 257 0.0 2.0 0.00 0.00 0.00 93 1014.7
20260902070157 77 172 0.0 2.0 0.00 0.00 0.00 93 1014.8
20260902065655 77 174 1.0 2.0 0.00 0.00 0.00 93 1014.9
20260902065152 77 252 0.0 2.0 0.00 0.00 0.00 92 1015.0
20260902064647 77 211 2.0 3.0 0.00 0.00 0.00 92 1014.9
20260902064142 77 124 0.0 3.0 0.00 0.00 0.00 92 1014.9
20260902063638 77 187 0.0 5.0 0.00 0.00 0.00 92 1015.0
20260902063132 77 200 1.0 2.0 0.00 0.00 0.00 91 1015.0
20260902062631 77 167 2.0 4.0 0.00 0.00 0.00 92 1015.2
20260902062127 77 142 0.0 1.0 0.00 0.00 0.00 91 1015.3
20260902061626 77 154 0.0 2.0 0.00 0.00 0.00 91 1015.4
20260902061122 77 193 2.0 3.0 0.00 0.00 0.00 91 1015.4
20260902060618 77 98 0.0 3.0 0.00 0.00 0.00 90 1015.5
20260902060115 77 177 1.0 3.0 0.00 0.00 0.00 90 1015.5
20260902055610 77 229 0.0 3.0 0.00 0.00 0.00 90 1015.4
20260902055105 77 175 2.0 4.0 0.00 0.00 0.00 90 1015.3
20260902054600 77 211 1.0 3.0 0.00 0.00 0.00 90 1015.6
20260902054056 77 224 1.0 3.0 0.00 0.00 0.00 90 1015.5
20260902053551 77 207 1.0 2.0 0.00 0.00 0.00 90 1015.5
20260902053045 77 185 0.0 2.0 0.00 0.00 0.00 90 1015.7
20260902052545 77 163 0.0 3.0 0.00 0.00 0.00 90 1015.7
20260902052040 77 211 1.0 3.0 0.00 0.00 0.00 90 1015.7
20260902051535 77 171 0.0 2.0 0.00 0.00 0.00 89 1015.8
20260902051034 77 166 0.0 2.0 0.00 0.00 0.00 89 1015.8
20260902050529 77 205 0.0 3.0 0.00 0.00 0.00 89 1015.7
20260902050024 77 126 0.0 2.0 0.00 0.00 0.00 89 1016.0
20260902045519 77 175 0.0 3.0 0.00 0.00 0.00 89 1015.8
20260902045016 77 246 0.0 2.0 0.00 0.00 0.00 89 1015.7
20260902044510 77 169 1.0 2.0 0.00 0.00 0.00 89 1015.9
20260902044006 77 200 0.0 3.0 0.00 0.00 0.00 89 1015.9
20260902043501 77 104 0.0 3.0 0.00 0.00 0.00 89 1015.7
20260902042956 77 207 2.0 3.0 0.00 0.00 0.00 89 1015.8
20260902042455 77 195 0.0 3.0 0.00 0.00 0.00 89 1015.7
20260902041950 77 205 2.0 3.0 0.00 0.00 0.00 89 1015.7
20260902041451 77 205 1.0 3.0 0.00 0.00 0.00 89 1015.7
20260902040950 77 199 0.0 2.0 0.00 0.00 0.00 88 1015.7
20260902040445 77 157 0.0 3.0 0.00 0.00 0.00 88 1015.6
20260902035944 77 200 1.0 3.0 0.00 0.00 0.00 88 1015.7
20260902035439 77 216 0.0 3.0 0.00 0.00 0.00 88 1015.7
20260902034939 77 242 0.0 2.0 0.00 0.00 0.00 88 1015.6
20260902034433 77 165 1.0 3.0 0.00 0.00 0.00 88 1015.5
20260902033932 77 147 0.0 2.0 0.00 0.00 0.00 88 1015.6
20260902033426 77 186 0.0 2.0 0.00 0.00 0.00 89 1015.6
20260902032925 77 154 0.0 2.0 0.00 0.00 0.00 89 1015.6
20260902032420 77 188 1.0 3.0 0.00 0.00 0.00 89 1015.6
20260902031914 76 141 0.0 2.0 0.00 0.00 0.00 90 1015.7
20260902031405 76 209 0.0 2.0 0.00 0.00 0.00 90 1015.6
20260902030901 77 284 0.0 1.0 0.00 0.00 0.00 90 1015.5
20260902030355 77 172 0.0 0.0 0.00 0.00 0.00 90 1015.6
20260902025854 77 255 0.0 0.0 0.00 0.00 0.00 90 1015.5
20260902025349 77 309 0.0 2.0 0.00 0.00 0.00 90 1015.5
20260902024844 77 206 0.0 2.0 0.00 0.00 0.00 90 1015.6
20260902024340 77 234 2.0 2.0 0.00 0.00 0.00 90 1015.6
20260902023835 77 193 0.0 2.0 0.00 0.00 0.00 89 1015.4
20260902023331 77 154 0.0 2.0 0.00 0.00 0.00 89 1015.5
20260902022829 77 157 0.0 1.0 0.00 0.00 0.00 89 1015.6
20260902022324 77 173 0.0 2.0 0.00 0.00 0.00 89 1015.4
20260902021820 77 186 0.0 1.0 0.00 0.00 0.00 89 1015.3
20260902021315 78 142 0.0 1.0 0.00 0.00 0.00 89 1015.3
20260902020811 78 195 0.0 2.0 0.00 0.00 0.00 89 1015.3
20260902020307 78 166 0.0 0.0 0.00 0.00 0.00 89 1015.3
20260902015802 78 160 2.0 2.0 0.00 0.00 0.00 88 1015.3
20260902015258 78 195 0.0 2.0 0.00 0.00 0.00 88 1015.2
20260902014754 78 119 0.0 2.0 0.00 0.00 0.00 88 1015.5
20260902014250 78 174 0.0 2.0 0.00 0.00 0.00 88 1015.4
20260902013749 79 181 0.0 2.0 0.00 0.00 0.00 88 1015.4
20260902013244 79 191 0.0 2.0 0.00 0.00 0.00 87 1015.5
20260902012739 79 135 0.0 2.0 0.00 0.00 0.00 87 1015.5
20260902012235 79 180 0.0 2.0 0.00 0.00 0.00 87 1015.5
20260902011731 79 147 0.0 0.0 0.00 0.00 0.00 87 1015.5
20260902011230 80 161 0.0 2.0 0.00 0.00 0.00 86 1015.3
20260902010730 80 169 0.0 2.0 0.00 0.00 0.00 86 1015.3
20260902010226 80 141 0.0 3.0 0.00 0.00 0.00 86 1015.5
20260902005724 80 167 0.0 3.0 0.00 0.00 0.00 86 1015.5
20260902005220 80 89 0.0 2.0 0.00 0.00 0.00 86 1015.4
20260902004719 80 188 2.0 2.0 0.00 0.00 0.00 86 1015.5
20260902004214 81 279 0.0 2.0 0.00 0.00 0.00 85 1015.4
20260902003709 81 130 0.0 2.0 0.00 0.00 0.00 85 1015.1
20260902003205 81 166 3.0 4.0 0.00 0.00 0.00 84 1015.3
20260902002700 82 181 1.0 3.0 0.00 0.00 0.00 84 1015.2
20260902002155 82 192 0.0 4.0 0.00 0.00 0.00 83 1015.1
20260902001650 82 220 1.0 4.0 0.00 0.00 0.00 83 1015.2
20260902001150 82 199 3.0 4.0 0.00 0.00 0.00 83 1015.1
20260902000645 83 197 2.0 4.0 0.00 0.00 0.00 83 1015.2
20260902000140 83 222 2.0 4.0 0.00 0.00 0.00 82 1015.2
20260901235639 83 186 2.0 3.0 0.00 0.00 0.00 82 1015.2
20260901235135 84 190 1.0 4.0 0.00 0.00 0.00 82 1015.3
20260901234634 84 195 1.0 5.0 0.00 0.00 0.00 82 1015.3
20260901234130 84 138 4.0 6.0 0.00 0.00 0.00 82 1015.2
20260901233624 84 224 2.0 3.0 0.00 0.00 0.00 82 1015.1
20260901233121 85 206 0.0 2.0 0.00 0.00 0.00 81 1015.1
20260901232620 85 156 1.0 2.0 0.00 0.00 0.00 81 1015.3
20260901232115 85 170 1.0 2.0 0.00 0.00 0.00 80 1014.9
20260901231612 86 157 0.0 2.0 0.00 0.00 0.00 79 1015.2
20260901231108 86 153 0.0 2.0 0.00 0.00 0.00 78 1015.1
20260901230603 86 120 1.0 2.0 0.00 0.00 0.00 77 1015.2
20260901230058 86 189 0.0 3.0 0.00 0.00 0.00 77 1015.2
20260901225553 86 125 1.0 3.0 0.00 0.00 0.00 76 1015.2
20260901225052 87 210 1.0 3.0 0.00 0.00 0.00 76 1015.2
20260901224549 87 177 2.0 2.0 0.00 0.00 0.00 75 1015.1
20260901224044 88 217 0.0 2.0 0.00 0.00 0.00 74 1015.2
20260901223539 88 199 0.0 3.0 0.00 0.00 0.00 73 1015.1
20260901223035 90 227 1.0 3.0 0.00 0.00 0.00 70 1015.0
20260901222531 90 210 1.0 2.0 0.00 0.00 0.00 69 1014.9
20260901222027 90 211 1.0 4.0 0.00 0.00 0.00 69 1014.8
20260901221523 89 218 0.0 7.0 0.00 0.00 0.00 70 1015.1
20260901221018 89 212 0.0 2.0 0.00 0.00 0.00 72 1014.9
20260901220518 89 66 1.0 3.0 0.00 0.00 0.00 70 1015.0
20260901220016 91 196 0.0 3.0 0.00 0.00 0.00 68 1014.9
20260901215515 92 154 0.0 2.0 0.00 0.00 0.00 66 1014.8
20260901215015 91 75 2.0 3.0 0.00 0.00 0.00 67 1014.8
20260901214514 92 224 0.0 2.0 0.00 0.00 0.00 67 1014.9
20260901214008 92 178 3.0 5.0 0.00 0.00 0.00 67 1014.7
20260901213502 92 154 2.0 5.0 0.00 0.00 0.00 68 1014.8
20260901213002 91 61 1.0 5.0 0.00 0.00 0.00 68 1014.7
20260901212457 90 184 0.0 3.0 0.00 0.00 0.00 72 1014.7
20260901211954 90 308 2.0 4.0 0.00 0.00 0.00 70 1014.7
20260901211449 91 325 0.0 3.0 0.00 0.00 0.00 69 1014.8
20260901210944 91 169 0.0 4.0 0.00 0.00 0.00 70 1014.9
20260901210440 92 221 2.0 5.0 0.00 0.00 0.00 68 1014.9
20260901205936 92 120 0.0 5.0 0.00 0.00 0.00 68 1015.0
20260901205430 92 207 1.0 5.0 0.00 0.00 0.00 67 1014.9
20260901204925 92 178 3.0 5.0 0.00 0.00 0.00 67 1015.1
20260901204422 93 332 1.0 5.0 0.00 0.00 0.00 65 1014.9
20260901203921 92 269 1.0 3.0 0.00 0.00 0.00 68 1015.1
20260901203417 92 195 2.0 4.0 0.00 0.00 0.00 67 1015.0
20260901202912 92 194 2.0 3.0 0.00 0.00 0.00 68 1015.0
20260901202406 91 312 2.0 3.0 0.00 0.00 0.00 68 1015.0
20260901201902 92 184 3.0 4.0 0.00 0.00 0.00 67 1014.9
20260901201402 93 235 0.0 4.0 0.00 0.00 0.00 68 1015.1
20260901200856 92 212 0.0 9.0 0.00 0.00 0.00 67 1015.1
20260901200352 92 238 2.0 6.0 0.00 0.00 0.00 69 1015.1
20260901195850 92 220 2.0 5.0 0.00 0.00 0.00 67 1015.1
20260901195343 92 173 2.0 5.0 0.00 0.00 0.00 68 1015.4
20260901194838 92 197 3.0 7.0 0.00 0.00 0.00 67 1015.1
20260901194333 92 169 3.0 8.0 0.00 0.00 0.00 68 1015.4
20260901193829 90 228 1.0 7.0 0.00 0.00 0.00 70 1015.3
20260901193328 92 170 2.0 7.0 0.00 0.00 0.00 67 1015.4
20260901192822 92 227 3.0 6.0 0.00 0.00 0.00 67 1015.5
20260901192318 93 310 1.0 4.0 0.00 0.00 0.00 69 1015.4
20260901191815 93 197 3.0 5.0 0.00 0.00 0.00 67 1015.5
20260901191310 91 168 2.0 3.0 0.00 0.00 0.00 70 1015.6
20260901190806 89 329 2.0 2.0 0.00 0.00 0.00 73 1015.4
20260901190306 91 311 2.0 5.0 0.00 0.00 0.00 70 1015.6
20260901185804 90 129 3.0 4.0 0.00 0.00 0.00 71 1015.5
20260901185305 90 231 0.0 4.0 0.00 0.00 0.00 71 1015.6
20260901184758 89 250 1.0 3.0 0.00 0.00 0.00 74 1015.5
20260901184248 88 239 2.0 5.0 0.00 0.00 0.00 74 1015.6
20260901183744 89 316 1.0 4.0 0.00 0.00 0.00 72 1015.4
20260901183243 91 137 1.0 5.0 0.00 0.00 0.00 69 1015.4
20260901182739 90 193 1.0 5.0 0.00 0.00 0.00 69 1015.2
20260901182238 90 194 2.0 3.0 0.00 0.00 0.00 71 1015.4
20260901181733 91 259 1.0 5.0 0.00 0.00 0.00 70 1015.3
20260901181228 91 274 0.0 5.0 0.00 0.00 0.00 68 1015.3
20260901180727 91 292 2.0 5.0 0.00 0.00 0.00 71 1015.3
20260901180226 91 343 4.0 5.0 0.00 0.00 0.00 69 1015.2
20260901175725 91 14 1.0 5.0 0.00 0.00 0.00 68 1015.4
20260901175221 91 292 2.0 5.0 0.00 0.00 0.00 69 1015.1
20260901174716 89 78 0.0 3.0 0.00 0.00 0.00 72 1015.3
20260901174212 89 38 2.0 4.0 0.00 0.00 0.00 72 1015.2
20260901173707 89 328 0.0 3.0 0.00 0.00 0.00 74 1015.4
20260901173201 89 305 2.0 5.0 0.00 0.00 0.00 73 1015.2
20260901172658 90 168 2.0 5.0 0.00 0.00 0.00 71 1015.5
20260901172156 89 228 0.0 3.0 0.00 0.00 0.00 71 1015.6
20260901171650 88 269 2.0 5.0 0.00 0.00 0.00 75 1015.5
20260901171149 88 162 0.0 7.0 0.00 0.00 0.00 73 1015.6
20260901170648 89 191 0.0 3.0 0.00 0.00 0.00 72 1015.5
20260901170143 88 89 0.0 4.0 0.00 0.00 0.00 73 1015.7
20260901165642 88 233 2.0 5.0 0.00 0.00 0.00 74 1015.5
20260901165137 88 196 2.0 3.0 0.00 0.00 0.00 73 1015.6
20260901164634 88 351 0.0 2.0 0.00 0.00 0.00 75 1015.6
20260901164128 88 345 0.0 3.0 0.00 0.00 0.00 73 1015.8
20260901163624 88 177 3.0 5.0 0.00 0.00 0.00 72 1015.7
20260901163123 88 321 1.0 3.0 0.00 0.00 0.00 77 1016.0
20260901162618 87 195 2.0 3.0 0.00 0.00 0.00 76 1016.0
20260901162118 86 180 0.0 4.0 0.00 0.00 0.00 75 1016.0
20260901161617 87 311 0.0 4.0 0.00 0.00 0.00 74 1016.0
20260901161116 87 162 0.0 3.0 0.00 0.00 0.00 73 1016.1
20260901160613 87 222 0.0 4.0 0.00 0.00 0.00 77 1016.3
20260901160108 86 16 1.0 4.0 0.00 0.00 0.00 76 1015.8
20260901155606 86 175 2.0 4.0 0.00 0.00 0.00 75 1016.0
20260901155103 87 160 1.0 2.0 0.00 0.00 0.00 74 1016.0
20260901154602 88 221 1.0 4.0 0.00 0.00 0.00 72 1016.1
20260901154056 88 219 0.0 3.0 0.00 0.00 0.00 74 1016.2
20260901153552 87 218 0.0 3.0 0.00 0.00 0.00 74 1015.9
20260901153045 87 174 1.0 2.0 0.00 0.00 0.00 74 1015.9
20260901152541 86 89 0.0 2.0 0.00 0.00 0.00 76 1016.0
20260901152039 85 182 0.0 3.0 0.00 0.00 0.00 77 1016.1
20260901151536 85 104 0.0 1.0 0.00 0.00 0.00 79 1015.9
20260901151035 84 44 0.0 3.0 0.00 0.00 0.00 80 1015.9
20260901150533 83 333 0.0 2.0 0.00 0.00 0.00 81 1016.1
20260901150031 82 169 1.0 3.0 0.00 0.00 0.00 82 1016.0
20260901145524 80 117 1.0 4.0 0.00 0.00 0.00 83 1016.0
20260901145019 80 169 2.0 4.0 0.00 0.00 0.00 84 1016.0
20260901144515 78 136 1.0 3.0 0.00 0.00 0.00 86 1016.1
20260901144009 78 178 3.0 4.0 0.00 0.00 0.00 86 1016.2
20260901143505 78 234 2.0 3.0 0.00 0.00 0.00 86 1016.2
20260901143001 78 220 0.0 3.0 0.00 0.00 0.00 87 1016.3
20260901142455 78 186 0.0 2.0 0.00 0.00 0.00 87 1016.3
20260901141951 78 187 1.0 3.0 0.00 0.00 0.00 86 1016.4
20260901141450 78 154 0.0 2.0 0.00 0.00 0.00 86 1016.2
20260901140946 78 255 0.0 2.0 0.00 0.00 0.00 86 1016.2
20260901140443 78 124 0.0 2.0 0.00 0.00 0.00 87 1016.2
20260901135938 78 235 0.0 2.0 0.00 0.00 0.00 86 1016.3
20260901135433 77 158 0.0 2.0 0.00 0.00 0.00 87 1016.3
20260901134929 77 224 1.0 2.0 0.00 0.00 0.00 88 1016.1
20260901134424 77 118 0.0 3.0 0.00 0.00 0.00 88 1016.1
20260901133924 76 180 0.0 3.0 0.00 0.00 0.00 88 1016.1
20260901133423 76 194 0.0 3.0 0.00 0.00 0.00 88 1016.2
20260901132922 76 180 0.0 3.0 0.00 0.00 0.00 88 1016.3
20260901132417 76 191 0.0 3.0 0.00 0.00 0.00 88 1016.4
20260901131916 76 12 1.0 2.0 0.00 0.00 0.00 89 1016.2
20260901131416 76 187 0.0 3.0 0.00 0.00 0.00 89 1016.2
20260901130912 76 126 0.0 2.0 0.00 0.00 0.00 89 1016.1
20260901130406 75 236 2.0 2.0 0.00 0.00 0.00 90 1016.2
20260901125903 74 178 0.0 3.0 0.00 0.00 0.00 91 1015.8
20260901125403 74 191 1.0 3.0 0.00 0.00 0.00 92 1016.0
20260901124858 73 162 1.0 3.0 0.00 0.00 0.00 93 1016.1
20260901124353 73 173 0.0 3.0 0.00 0.00 0.00 93 1016.1
20260901123853 73 191 1.0 2.0 0.00 0.00 0.00 93 1015.9
20260901123348 72 192 1.0 3.0 0.00 0.00 0.00 94 1016.1
20260901122846 72 178 1.0 2.0 0.00 0.00 0.00 94 1016.1
20260901122341 72 194 1.0 3.0 0.00 0.00 0.00 94 1016.0
20260901121840 72 212 0.0 2.0 0.00 0.00 0.00 94 1015.8
20260901121336 72 165 1.0 2.0 0.00 0.00 0.00 94 1015.8
20260901120831 72 206 1.0 3.0 0.00 0.00 0.00 94 1015.7
20260901120325 72 156 0.0 3.0 0.00 0.00 0.00 95 1015.6
20260901115821 72 191 2.0 4.0 0.00 0.00 0.00 95 1015.7
20260901115316 71 210 0.0 3.0 0.00 0.00 0.00 95 1015.7
20260901114814 71 89 0.0 2.0 0.00 0.00 0.00 95 1015.6
20260901114308 71 72 0.0 2.0 0.00 0.00 0.00 96 1015.6
20260901113806 71 293 0.0 2.0 0.00 0.00 0.00 96 1015.5
20260901113255 71 154 0.0 2.0 0.00 0.00 0.00 96 1015.4
20260901112750 71 149 0.0 2.0 0.00 0.00 0.00 96 1015.4
20260901112250 71 160 0.0 2.0 0.00 0.00 0.00 96 1015.5
20260901111745 71 193 0.0 2.0 0.00 0.00 0.00 96 1015.5
20260901111244 71 188 0.0 2.0 0.00 0.00 0.00 95 1015.3
20260901110743 71 135 0.0 2.0 0.00 0.00 0.00 95 1015.3
20260901110238 71 233 0.0 1.0 0.00 0.00 0.00 95 1015.4
20260901105735 71 168 0.0 1.0 0.00 0.00 0.00 95 1015.3
20260901105234 71 230 0.0 2.0 0.00 0.00 0.00 95 1015.4